Weather History for Biloxi, MS

Change the Weather History Date:

Wednesday, March 14, 2012

  Actual Average Record
Temperature  
Mean Temperature 70 °F -  
Max Temperature 77 °F 68 °F 80 °F (1963)
Min Temperature 64 °F 48 °F 24 °F (1993)
Cooling Degree Days 6    
Growing Degree Days 20 (Base 50)    
Moisture  
Dew Point 66 °F    
Average Humidity 98    
Maximum Humidity 100    
Minimum Humidity 73    
Precipitation  
Precipitation 0.00 in - - ()
Sea Level Pressure  
Sea Level Pressure 30.22 in    
Wind  
Wind Speed 3 mph (East)    
Max Wind Speed 10 mph    
Max Gust Speed -    
Visibility 3 miles    
Events Fog    
Averages and records for this station are not official NWS values.
T = Trace of Precipitation, MM = Missing Value Source: NWS Daily Summary

Daily Weather History Graph

Daily Weather History Graph

Search for Another Location

Airport:

Trip Planner

Search our weather history database for the weather conditions in past years. The results will help you decide how hot, cold, wet, or windy it might be!

Date:

Astronomy

Mar. 14, 2012 Rise Set
Actual Time 7:06 AM CDT 7:03 PM CDT
Civil Twilight 6:42 AM CDT 7:27 PM CDT
Nautical Twilight 6:14 AM CDT 7:55 PM CDT
Astronomical Twilight 5:46 AM CDT 8:23 PM CDT
Moon 1:11 AM CDT (3/14) 11:44 AM CDT (3/14)
Length of Visible Light 12h 45m
Length of Day
11h 57m
Waning Gibbous, 54% of the Moon is Illuminated
Mar 14
Waning Gibbous
Mar 14
Last Quarter
Mar 22
New
Mar 30
First Quarter
Apr 6
Full

Hourly Weather History & Observations

Time (CDT) Temp. Dew Point Humidity Pressure Visibility Wind Dir Wind Speed Gust Speed Precip Events Conditions
12:12 AM 68.0 °F 68.0 °F 100% 30.22 in 10.0 mi South 5.8 mph - N/A   Scattered Clouds
12:55 AM 68.0 °F 67.6 °F 99% 30.21 in 10.0 mi SSE 3.5 mph - N/A   Clear
1:55 AM 67.3 °F 67.1 °F 99% 30.20 in 10.0 mi Calm Calm - N/A   Clear
2:27 AM 66.2 °F 66.2 °F 100% 30.19 in 7.0 mi Calm Calm - N/A   Clear
2:35 AM 66.2 °F 66.2 °F 100% 30.19 in 7.0 mi Calm Calm - N/A   Clear
2:43 AM 66.2 °F 66.2 °F 100% 30.19 in 2.5 mi Calm Calm - N/A   Clear
2:44 AM 66.2 °F 66.2 °F 100% 30.19 in 1.8 mi Calm Calm - N/A   Clear
2:45 AM 66.2 °F 66.2 °F 100% 30.19 in 1.2 mi Calm Calm - N/A   Clear
2:46 AM 66.2 °F 66.2 °F 100% 30.19 in 1.0 mi Calm Calm - N/A   Clear
2:48 AM 66.2 °F 66.2 °F 100% 30.19 in 0.8 mi Calm Calm - N/A   Clear
2:49 AM 66.2 °F 66.2 °F 100% 30.19 in 0.8 mi Calm Calm - N/A   Clear
2:50 AM 66.2 °F 66.2 °F 100% 30.19 in 0.8 mi Calm Calm - N/A   Clear
2:51 AM 66.2 °F 66.2 °F 100% 30.19 in 0.5 mi Calm Calm - N/A Fog Fog
2:52 AM 66.2 °F 66.2 °F 100% 30.19 in 0.5 mi Calm Calm - N/A Fog Fog
2:55 AM 66.0 °F 65.7 °F 99% 30.19 in 0.5 mi Calm Calm - N/A Fog Fog
2:57 AM 66.2 °F 66.2 °F 100% 30.19 in 0.5 mi Calm Calm - N/A Fog Fog
3:00 AM 66.2 °F 66.2 °F 100% 30.19 in 0.5 mi Calm Calm - N/A Fog Fog
3:02 AM 66.2 °F 66.2 °F 100% 30.19 in 0.8 mi Calm Calm - N/A   Clear
3:04 AM 66.2 °F 66.2 °F 100% 30.19 in 1.0 mi Calm Calm - N/A   Clear
3:07 AM 66.2 °F 66.2 °F 100% 30.19 in 1.2 mi Calm Calm - N/A   Clear
3:11 AM 66.2 °F 66.2 °F 100% 30.19 in 1.5 mi Calm Calm - N/A   Clear
3:26 AM 64.4 °F 64.4 °F 100% 30.19 in 1.0 mi Calm Calm - N/A   Clear
3:28 AM 64.4 °F 64.4 °F 100% 30.19 in 0.8 mi Calm Calm - N/A   Clear
3:30 AM 64.4 °F 64.4 °F 100% 30.19 in 0.5 mi Calm Calm - N/A Fog Fog
3:32 AM 64.4 °F 64.4 °F 100% 30.19 in 0.5 mi Calm Calm - N/A Fog Fog
3:34 AM 64.4 °F 64.4 °F 100% 30.19 in 0.5 mi Calm Calm - N/A Fog Fog
3:36 AM 64.4 °F 64.4 °F 100% 30.19 in 0.2 mi Calm Calm - N/A Fog Fog
3:55 AM 64.2 °F 64.0 °F 99% 30.18 in 0.2 mi Calm Calm - N/A Fog Fog
3:56 AM 64.4 °F 64.4 °F 100% 30.18 in 0.5 mi Calm Calm - N/A Fog Fog
3:58 AM 64.4 °F 64.4 °F 100% 30.18 in 0.5 mi Calm Calm - N/A Fog Fog
4:01 AM 64.4 °F 64.4 °F 100% 30.18 in 0.8 mi Calm Calm - N/A   Clear
4:10 AM 64.4 °F 64.4 °F 100% 30.18 in 0.5 mi NW 3.5 mph - N/A Fog Fog
4:11 AM 64.4 °F 64.4 °F 100% 30.18 in 0.5 mi Calm Calm - N/A Fog Fog
4:22 AM 64.4 °F 64.4 °F 100% 30.18 in 0.8 mi Calm Calm - N/A   Clear
4:26 AM 64.4 °F 64.4 °F 100% 30.18 in 0.5 mi Calm Calm - N/A Fog Fog
4:33 AM 64.4 °F 64.4 °F 100% 30.18 in 0.2 mi Calm Calm - N/A Fog Fog
4:55 AM 64.9 °F 64.6 °F 99% 30.18 in 0.2 mi Calm Calm - N/A Fog Fog
4:59 AM 64.4 °F 64.4 °F 100% 30.18 in 0.5 mi Calm Calm - N/A Fog Fog
5:15 AM 64.4 °F 64.4 °F 100% 30.18 in 0.2 mi NNE 4.6 mph - N/A Fog Fog
5:45 AM 64.4 °F 64.4 °F 100% 30.19 in 0.5 mi Calm Calm - N/A Fog Fog
5:55 AM 64.8 °F 64.4 °F 99% 30.20 in 0.5 mi Calm Calm - N/A Fog Fog
6:40 AM 64.4 °F 64.4 °F 100% 30.22 in 0.8 mi ENE 3.5 mph - N/A   Clear
6:46 AM 64.4 °F 64.4 °F 100% 30.22 in 1.0 mi ENE 3.5 mph - N/A   Clear
6:48 AM 64.4 °F 64.4 °F 100% 30.22 in 1.0 mi East 3.5 mph - N/A   Clear
6:52 AM 64.4 °F 64.4 °F 100% 30.22 in 1.2 mi ENE 4.6 mph - N/A   Clear
6:55 AM 64.8 °F 64.6 °F 99% 30.22 in 1.5 mi ENE 3.5 mph - N/A   Clear
6:57 AM 64.4 °F 64.4 °F 100% 30.22 in 1.8 mi ENE 3.5 mph - N/A   Clear
6:59 AM 64.4 °F 64.4 °F 100% 30.22 in 1.8 mi Calm Calm - N/A   Clear
7:01 AM 64.4 °F 64.4 °F 100% 30.22 in 1.5 mi NE 3.5 mph - N/A   Clear
7:03 AM 64.4 °F 64.4 °F 100% 30.22 in 1.2 mi NE 3.5 mph - N/A   Clear
7:05 AM 64.4 °F 64.4 °F 100% 30.23 in 1.0 mi ENE 3.5 mph - N/A   Clear
7:08 AM 64.4 °F 64.4 °F 100% 30.22 in 0.8 mi NE 4.6 mph - N/A   Clear
7:10 AM 64.4 °F 64.4 °F 100% 30.22 in 0.8 mi NE 4.6 mph - N/A   Clear
7:11 AM 64.4 °F 64.4 °F 100% 30.22 in 0.8 mi NE 4.6 mph - N/A   Clear
7:12 AM 64.4 °F 64.4 °F 100% 30.22 in 0.8 mi NE 4.6 mph - N/A   Clear
7:13 AM 64.4 °F 64.4 °F 100% 30.22 in 0.8 mi NE 4.6 mph - N/A   Mist
7:14 AM 64.4 °F 64.4 °F 100% 30.22 in 0.5 mi ENE 4.6 mph - N/A Fog Fog
7:16 AM 64.4 °F 64.4 °F 100% 30.23 in 0.8 mi ENE 3.5 mph - N/A   Mist
7:17 AM 64.4 °F 64.4 °F 100% 30.23 in 0.8 mi ENE 4.6 mph - N/A   Mist
7:18 AM 64.4 °F 64.4 °F 100% 30.23 in 0.8 mi ENE 4.6 mph - N/A   Mist
7:27 AM 64.4 °F 64.4 °F 100% 30.23 in 0.5 mi ENE 4.6 mph - N/A Fog Fog
7:30 AM 64.4 °F 64.4 °F 100% 30.23 in 0.5 mi ENE 3.5 mph - N/A Fog Fog
7:31 AM 64.4 °F 64.4 °F 100% 30.23 in 0.5 mi ENE 3.5 mph - N/A Fog Fog
7:33 AM 64.4 °F 64.4 °F 100% 30.23 in 0.8 mi ENE 3.5 mph - N/A   Mist
7:34 AM 64.4 °F 64.4 °F 100% 30.23 in 0.8 mi ENE 4.6 mph - N/A   Mist
7:35 AM 64.4 °F 64.4 °F 100% 30.23 in 0.8 mi ENE 4.6 mph - N/A   Mist
7:37 AM 64.4 °F 64.4 °F 100% - 1.0 mi North - - N/A   Mist
7:39 AM 64.4 °F 64.4 °F 100% 30.24 in 1.2 mi North - - N/A   Overcast
7:41 AM 64.4 °F 64.4 °F 100% 30.24 in 1.5 mi ENE 5.8 mph - N/A   Overcast
7:42 AM 64.4 °F 64.4 °F 100% 30.24 in 1.8 mi ENE 5.8 mph - N/A   Overcast
7:43 AM 64.4 °F 64.4 °F 100% 30.24 in 2.0 mi ENE 5.8 mph - N/A   Overcast
7:44 AM 64.4 °F 64.4 °F 100% 30.24 in 2.5 mi ENE 5.8 mph - N/A   Overcast
7:45 AM 64.4 °F 64.4 °F 100% 30.24 in 3.0 mi East 4.6 mph - N/A   Overcast
7:52 AM 64.4 °F 64.4 °F 100% 30.24 in 3.0 mi ENE 5.8 mph - N/A   Overcast
7:55 AM 64.9 °F 64.6 °F 99% 30.24 in 4.0 mi ENE 5.8 mph - N/A   Overcast
8:03 AM 64.4 °F 64.4 °F 100% 30.25 in 2.0 mi East 4.6 mph - N/A   Overcast
8:46 AM 66.2 °F 66.2 °F 100% 30.26 in 2.5 mi East 5.8 mph - N/A   Overcast
8:55 AM 66.0 °F 65.7 °F 99% 30.26 in 2.0 mi ENE 4.6 mph - N/A   Overcast
9:18 AM 66.2 °F 66.2 °F 100% 30.27 in 0.5 mi East 4.6 mph - N/A Fog Fog
9:43 AM 68.0 °F 68.0 °F 100% 30.27 in 1.0 mi East 3.5 mph - N/A   Overcast
9:48 AM 68.0 °F 68.0 °F 100% 30.27 in 1.5 mi East 3.5 mph - N/A   Mostly Cloudy
9:55 AM 68.0 °F 67.6 °F 99% 30.28 in 2.5 mi ENE 3.5 mph - N/A   Mostly Cloudy
10:07 AM 68.0 °F 68.0 °F 100% 30.28 in 3.0 mi East 3.5 mph - N/A   Mostly Cloudy
10:27 AM 69.8 °F 69.8 °F 100% 30.28 in 10.0 mi Variable 4.6 mph - N/A   Mostly Cloudy
10:36 AM 69.8 °F 69.8 °F 100% 30.28 in 10.0 mi NE 4.6 mph - N/A   Mostly Cloudy
10:55 AM 71.1 °F 70.7 °F 99% 30.28 in 10.0 mi Calm Calm - N/A   Scattered Clouds
11:41 AM 75.2 °F 68.0 °F 78% 30.28 in 10.0 mi Variable 5.8 mph - N/A   Mostly Cloudy
11:55 AM 75.2 °F 67.6 °F 77% 30.28 in 10.0 mi SSE 4.6 mph - N/A   Partly Cloudy
12:55 PM 77.5 °F 68.2 °F 73% 30.27 in 10.0 mi Variable 6.9 mph - N/A   Clear
1:55 PM 76.3 °F 68.2 °F 76% 30.25 in 10.0 mi South 8.1 mph - N/A   Clear
2:55 PM 75.2 °F 68.0 °F 78% 30.23 in 10.0 mi South 9.2 mph - N/A   Scattered Clouds
3:47 PM 71.6 °F 69.8 °F 94% 30.22 in 10.0 mi South 10.4 mph - N/A   Mostly Cloudy
3:53 PM 71.6 °F 68.0 °F 88% 30.22 in 3.0 mi South 9.2 mph - N/A   Mostly Cloudy
3:55 PM 71.6 °F 68.0 °F 88% 30.22 in 3.0 mi South 9.2 mph - N/A   Mostly Cloudy
4:26 PM 69.8 °F 69.8 °F 100% 30.22 in 5.0 mi South 8.1 mph - N/A   Mostly Cloudy
4:44 PM 69.8 °F 69.8 °F 100% 30.21 in 1.0 mi South 9.2 mph - N/A   Mostly Cloudy
4:55 PM 69.8 °F 69.8 °F 100% 30.21 in 0.5 mi South 9.2 mph - N/A Fog Fog
5:07 PM 68.0 °F 68.0 °F 100% 30.21 in 0.2 mi South 9.2 mph - N/A Fog Fog
5:19 PM 68.0 °F 68.0 °F 100% 30.21 in 1.2 mi South 5.8 mph - N/A   Overcast
5:45 PM 68.0 °F 68.0 °F 100% 30.21 in 0.1 mi SSE 5.8 mph - N/A Fog Fog
5:55 PM 68.0 °F 68.0 °F 100% 30.21 in 0.2 mi South 8.1 mph - N/A Fog Fog
6:55 PM 68.0 °F 66.2 °F 94% 30.21 in 0.5 mi South 5.8 mph - N/A Fog Fog
7:45 PM 66.2 °F 66.2 °F 100% 30.22 in 4.0 mi South 8.1 mph - N/A   Mostly Cloudy
7:55 PM 66.2 °F 66.2 °F 100% 30.23 in 5.0 mi South 5.8 mph - N/A   Mostly Cloudy
8:50 PM 66.2 °F 66.2 °F 100% 30.24 in 9.0 mi Variable 4.6 mph - N/A   Overcast
8:55 PM 66.9 °F 66.6 °F 99% 30.24 in 7.0 mi South 4.6 mph - N/A   Overcast
9:20 PM 66.2 °F 66.2 °F 100% 30.24 in 3.0 mi SSE 4.6 mph - N/A   Overcast
9:55 PM 66.2 °F 66.2 °F 100% 30.25 in 5.0 mi South 3.5 mph - N/A   Mostly Cloudy
10:55 PM 66.2 °F 65.8 °F 99% 30.26 in 10.0 mi South 4.6 mph - N/A   Mostly Cloudy
11:55 PM 66.4 °F 66.2 °F 99% 30.24 in 10.0 mi WSW 3.5 mph - N/A   Mostly Cloudy